When you browse on this site, cookies collect data to enhance your experience and personalize the content and advertising you see.
Visit our Privacy Policy to learn more. By continuing to use the site, you agree to this use of cookies and data.
  • In Switzerland
  • List of Countries
  • For 7 days
  • Water Temperature
  • Satellite Maps
  • Weather Map
  • Weather Widgets
  • user-avatar
    Login

    Hourly Weather Yangcun

    Today, 26 May, Sunday

    Time Temperature Precipitation Wind Pressure Humidity
    00:00 +28°C° 0 mm 3 mps 751 mmHg 47%
    01:00 +27°C° 0 mm 3 mps 751 mmHg 49%
    02:00 +27°C° 0 mm 2 mps 751 mmHg 51%
    03:00 +27°C° 0 mm 3 mps 751 mmHg 52%
    04:00 +26°C° 0 mm 3 mps 751 mmHg 54%
    05:00 +26°C° 0 mm 3 mps 751 mmHg 56%
    06:00 +27°C° 0 mm 3 mps 751 mmHg 54%
    07:00 +29°C° 0 mm 3 mps 751 mmHg 52%
    08:00 +33°C° 0 mm 3 mps 751 mmHg 47%
    09:00 +33°C° 0.7 mm 3 mps 751 mmHg 49%
    10:00 +33°C° 0.7 mm 3 mps 751 mmHg 51%
    11:00 +33°C° 0.7 mm 3 mps 751 mmHg 52%
    12:00 +29°C° 7.5 mm 5 mps 750 mmHg 62%
    13:00 +27°C° 7.5 mm 7 mps 750 mmHg 72%
    14:00 +24°C° 7.5 mm 9 mps 749 mmHg 82%
    15:00 +23°C° 5.3 mm 8 mps 749 mmHg 75%
    16:00 +23°C° 5.3 mm 7 mps 749 mmHg 69%
    17:00 +22°C° 5.3 mm 6 mps 749 mmHg 62%
    18:00 +22°C° 0 mm 6 mps 750 mmHg 64%
    19:00 +21°C° 0 mm 6 mps 750 mmHg 67%
    20:00 +20°C° 0 mm 6 mps 751 mmHg 69%
    21:00 +19°C° 0 mm 5 mps 752 mmHg 67%
    22:00 +19°C° 0 mm 5 mps 753 mmHg 66%
    23:00 +17°C° 0 mm 5 mps 754 mmHg 64%

    Tomorrow, 27 May, Monday

    Time Temperature Precipitation Wind Pressure Humidity
    00:00 +17°C° 0 mm 5 mps 755 mmHg 64%
    01:00 +18°C° 0 mm 4 mps 756 mmHg 63%
    02:00 +18°C° 0 mm 4 mps 757 mmHg 62%
    03:00 +17°C° 0 mm 4 mps 757 mmHg 58%
    04:00 +16°C° 0 mm 5 mps 758 mmHg 55%
    05:00 +16°C° 0 mm 6 mps 759 mmHg 51%
    06:00 +19°C° 0 mm 6 mps 759 mmHg 46%
    07:00 +20°C° 0 mm 6 mps 760 mmHg 41%
    08:00 +21°C° 0 mm 6 mps 760 mmHg 37%
    09:00 +23°C° 0 mm 6 mps 760 mmHg 32%
    10:00 +24°C° 0 mm 7 mps 761 mmHg 28%
    11:00 +27°C° 0 mm 7 mps 761 mmHg 24%
    12:00 +28°C° 0 mm 7 mps 760 mmHg 21%
    13:00 +28°C° 0 mm 7 mps 760 mmHg 19%
    14:00 +29°C° 0 mm 7 mps 760 mmHg 17%
    15:00 +29°C° 0 mm 6 mps 760 mmHg 17%
    16:00 +29°C° 0 mm 6 mps 759 mmHg 17%
    17:00 +29°C° 0 mm 5 mps 759 mmHg 17%
    18:00 +28°C° 0 mm 4 mps 760 mmHg 20%
    19:00 +26°C° 0 mm 3 mps 760 mmHg 24%
    20:00 +24°C° 0 mm 2 mps 760 mmHg 27%
    21:00 +24°C° 0 mm 1 mps 761 mmHg 27%
    22:00 +23°C° 0 mm 1 mps 761 mmHg 28%
    23:00 +21°C° 0 mm 0 mps 762 mmHg 28%

    Day after tomorrow, 28 May, Tuesday

    Time Temperature Precipitation Wind Pressure Humidity
    00:00 +22°C° 0 mm 1 mps 761 mmHg 29%
    01:00 +21°C° 0 mm 2 mps 761 mmHg 29%
    02:00 +20°C° 0 mm 3 mps 761 mmHg 29%
    03:00 +20°C° 0 mm 3 mps 761 mmHg 29%
    04:00 +20°C° 0 mm 3 mps 761 mmHg 29%
    05:00 +19°C° 0 mm 4 mps 761 mmHg 29%
    06:00 +21°C° 0 mm 4 mps 761 mmHg 27%
    07:00 +23°C° 0 mm 4 mps 761 mmHg 25%
    08:00 +26°C° 0 mm 5 mps 761 mmHg 23%
    09:00 +28°C° 0 mm 4 mps 761 mmHg 20%
    10:00 +30°C° 0 mm 4 mps 761 mmHg 17%
    11:00 +33°C° 0 mm 3 mps 760 mmHg 14%
    12:00 +33°C° 0 mm 3 mps 760 mmHg 13%
    13:00 +34°C° 0 mm 3 mps 759 mmHg 12%
    14:00 +35°C° 0 mm 3 mps 758 mmHg 11%
    15:00 +35°C° 0 mm 3 mps 757 mmHg 11%
    16:00 +35°C° 0 mm 3 mps 757 mmHg 11%
    17:00 +35°C° 0 mm 3 mps 756 mmHg 11%
    18:00 +33°C° 0 mm 3 mps 756 mmHg 12%
    19:00 +31°C° 0 mm 3 mps 756 mmHg 13%
    20:00 +29°C° 0 mm 3 mps 756 mmHg 14%
    21:00 +29°C° 0 mm 4 mps 756 mmHg 14%
    22:00 +28°C° 0 mm 4 mps 756 mmHg 14%
    23:00 +28°C° 0 mm 5 mps 756 mmHg 13%

    29 May, Wednesday

    Time Temperature Precipitation Wind Pressure Humidity
    00:00 +27°C° 0 mm 5 mps 756 mmHg 15%
    01:00 +27°C° 0 mm 5 mps 756 mmHg 16%
    02:00 +26°C° 0 mm 5 mps 755 mmHg 17%
    03:00 +26°C° 0 mm 4 mps 755 mmHg 19%
    04:00 +25°C° 0 mm 4 mps 755 mmHg 21%
    05:00 +24°C° 0 mm 3 mps 755 mmHg 23%
    06:00 +26°C° 0 mm 3 mps 755 mmHg 23%
    07:00 +27°C° 0 mm 3 mps 755 mmHg 23%
    08:00 +28°C° 0 mm 3 mps 756 mmHg 23%
    09:00 +32°C° 0 mm 4 mps 755 mmHg 21%
    10:00 +34°C° 0 mm 4 mps 755 mmHg 18%
    11:00 +36°C° 0 mm 5 mps 755 mmHg 16%
    12:00 +37°C° 0 mm 5 mps 754 mmHg 14%
    13:00 +39°C° 0 mm 5 mps 753 mmHg 12%
    14:00 +40°C° 0 mm 6 mps 752 mmHg 10%
    15:00 +40°C° 0 mm 6 mps 752 mmHg 10%
    16:00 +39°C° 0 mm 6 mps 751 mmHg 10%
    17:00 +39°C° 0 mm 7 mps 751 mmHg 9%
    18:00 +38°C° 0 mm 6 mps 751 mmHg 10%
    19:00 +35°C° 0 mm 6 mps 751 mmHg 11%
    20:00 +33°C° 0 mm 6 mps 751 mmHg 11%
    21:00 +33°C° 0 mm 6 mps 751 mmHg 12%
    22:00 +32°C° 0 mm 6 mps 751 mmHg 14%
    23:00 +30°C° 0 mm 6 mps 751 mmHg 15%

    30 May, Thursday

    Time Temperature Precipitation Wind Pressure Humidity
    00:00 +29°C° 0 mm 5 mps 751 mmHg 16%
    01:00 +29°C° 0 mm 5 mps 751 mmHg 17%
    02:00 +28°C° 0 mm 4 mps 751 mmHg 18%
    03:00 +27°C° 0 mm 3 mps 751 mmHg 19%
    04:00 +27°C° 0 mm 3 mps 751 mmHg 20%
    05:00 +27°C° 0 mm 3 mps 751 mmHg 21%
    06:00 +26°C° 0 mm 5 mps 752 mmHg 25%
    07:00 +24°C° 0 mm 7 mps 753 mmHg 30%
    08:00 +24°C° 0 mm 9 mps 754 mmHg 34%
    09:00 +24°C° 0 mm 8 mps 754 mmHg 35%
    10:00 +24°C° 0 mm 7 mps 755 mmHg 35%
    11:00 +24°C° 0 mm 7 mps 756 mmHg 36%
    12:00 +26°C° 0 mm 6 mps 755 mmHg 32%
    13:00 +28°C° 0 mm 5 mps 755 mmHg 28%
    14:00 +29°C° 0 mm 3 mps 755 mmHg 24%
    15:00 +30°C° 0 mm 3 mps 755 mmHg 21%
    16:00 +31°C° 0 mm 3 mps 755 mmHg 17%
    17:00 +31°C° 0 mm 3 mps 755 mmHg 14%
    18:00 +29°C° 0 mm 3 mps 755 mmHg 18%
    19:00 +27°C° 0 mm 3 mps 755 mmHg 22%
    20:00 +25°C° 0 mm 2 mps 756 mmHg 26%
    21:00 +24°C° 0 mm 2 mps 756 mmHg 31%
    22:00 +23°C° 0 mm 2 mps 757 mmHg 35%
    23:00 +21°C° 0 mm 2 mps 757 mmHg 39%

    31 May, Friday

    Time Temperature Precipitation Wind Pressure Humidity
    00:00 +21°C° 0 mm 2 mps 757 mmHg 40%
    01:00 +21°C° 0 mm 2 mps 757 mmHg 41%
    02:00 +20°C° 0 mm 2 mps 757 mmHg 42%
    03:00 +20°C° 0 mm 2 mps 757 mmHg 41%
    04:00 +20°C° 0 mm 2 mps 757 mmHg 41%
    05:00 +19°C° 0 mm 2 mps 757 mmHg 40%
    06:00 +22°C° 0 mm 1 mps 757 mmHg 36%
    07:00 +24°C° 0 mm 1 mps 757 mmHg 31%
    08:00 +26°C° 0 mm 1 mps 757 mmHg 27%
    09:00 +28°C° 0 mm 2 mps 757 mmHg 25%
    10:00 +30°C° 0 mm 3 mps 756 mmHg 22%
    11:00 +33°C° 0 mm 5 mps 756 mmHg 20%
    12:00 +34°C° 0 mm 5 mps 755 mmHg 18%
    13:00 +35°C° 0 mm 5 mps 754 mmHg 16%
    14:00 +36°C° 0 mm 6 mps 753 mmHg 14%
    15:00 +36°C° 0 mm 6 mps 752 mmHg 13%
    16:00 +36°C° 0 mm 6 mps 752 mmHg 13%
    17:00 +36°C° 0 mm 6 mps 751 mmHg 12%
    18:00 +35°C° 0 mm 5 mps 751 mmHg 14%
    19:00 +33°C° 0 mm 5 mps 751 mmHg 15%
    20:00 +32°C° 0 mm 4 mps 751 mmHg 17%
    21:00 +30°C° 0 mm 5 mps 751 mmHg 18%
    22:00 +30°C° 0 mm 5 mps 751 mmHg 18%
    23:00 +30°C° 0 mm 5 mps 751 mmHg 19%
    Show more